Location: Unspecified
(51.8296°N, 0.0000°E)
Time: 12:16:49
(UTC+00:00)

CUBEBUG 2 - Visible Passes

Search period start: 04 April 2026 00:00
Search period end: 14 April 2026 00:00
Orbit: 549 x 628 km, 97.9° (Epoch: 29 March)

Date Brightness Start Highest point End Pass type
(mag) Time Alt. Az. Time Alt. Az. Time Alt. Az.
4 Apr ? 01:14:43 10° NE 01:17:16 16° E 01:17:16 16° E visible
4 Apr ? 02:49:00 10° N 02:53:23 71° WNW 02:53:46 66° WSW visible
4 Apr ? 04:26:17 10° NNW 04:28:04 12° NW 04:29:49 10° WNW visible
5 Apr ? 01:21:47 10° NE 01:24:48 18° E 01:24:48 18° E visible
5 Apr ? 02:56:22 10° N 03:00:42 61° WNW 03:01:17 55° WSW visible
5 Apr ? 04:34:13 10° NW 04:35:16 11° NW 04:36:19 10° WNW visible
6 Apr ? 01:28:53 10° NE 01:32:14 21° E 01:32:18 21° E visible
6 Apr ? 03:03:44 10° N 03:07:59 52° WNW 03:08:48 45° WSW visible
7 Apr ? 01:36:02 10° NE 01:39:36 24° E 01:39:48 24° E visible
7 Apr ? 03:11:06 10° N 03:15:16 45° WNW 03:16:17 37° WSW visible
8 Apr ? 01:43:12 10° NE 01:46:58 28° E 01:47:16 28° ESE visible
8 Apr ? 03:18:27 10° N 03:22:31 39° WNW 03:23:46 31° WSW visible
9 Apr ? 01:50:22 10° NNE 01:54:17 32° E 01:54:44 31° ESE visible
9 Apr ? 03:25:50 10° N 03:29:45 34° WNW 03:31:14 26° WSW visible
10 Apr ? 01:57:33 10° NNE 02:01:37 37° E 02:02:11 35° ESE visible
10 Apr ? 03:33:11 10° N 03:36:58 29° WNW 03:38:41 22° WSW visible
11 Apr ? 02:04:45 10° NNE 02:08:55 43° E 02:09:37 40° SE visible
11 Apr ? 03:40:34 10° N 03:44:10 26° WNW 03:46:07 19° WSW visible
12 Apr ? 02:11:57 10° NNE 02:16:11 51° E 02:17:02 43° SE visible
12 Apr ? 03:47:57 10° N 03:51:20 23° WNW 03:53:32 16° W visible
13 Apr ? 02:19:09 10° NNE 02:23:26 60° E 02:24:27 45° SSE visible
13 Apr ? 03:55:21 10° NNW 03:58:30 20° WNW 04:00:57 13° W visible
